Weather in Shapsugskaya

Russia / Krasnodar Krai     44°44′45″N   38°04′30″E
temp.,
°C
wind,
m/s
gust,
m/s
humid.,
%
clouds,
%
prec.,
mm/h
press.,
hPa
HPBL,
m
11 may, tue
tue1100:00+9sw51168100 0.1 1019596
03:00+10wsw61063100 0.1 1017819
06:00+10wsw71278100 0.3 10151520
09:00+8wsw71389100 1.9 10161180
12:00+8sw81491100 1.8 10141439
15:00+9sw91495100 7.0 10141371
18:00+9sw61197100 5.4 1013981
21:00+9ssw3899100 10.3 1014749
12 may, wed
wed1200:00+9ssw51099100 6.7 1013922
03:00+9s51196100 10.6 1014945
06:00+8s51194100 1.9 1015771
09:00+9s4108999 2.3 1015657
12:00+15s4752100 0.0 1014912
15:00+15ssw2349100 0.0 1014591
18:00+16nne13638 0.0 1013300
21:00+10ne11922 0.0 101316
13 may, thu
thu1300:00+9nne21960 0.0 101325
03:00+8nne11960 0.0 101222
06:00+10ne12930 0.0 101226
09:00+18ene22625 0.0 1012344
12:00+24ene24435 0.0 10111023
15:00+24ne455078 0.0 1011962
18:00+21ene257698 0.0 1010357
21:00+16ne11924 0.0 101017
14 may, fri
fri1400:00+16se01795 0.0 100911
03:00+16se11635 0.0 100911
06:00+16sse11593 0.0 101012
09:00+25s39415 0.0 1010646
12:00+27s244016 0.0 1010698
15:00+28sse14411 0.0 10101042
18:00+24sw11650 0.0 101041
21:00+17ne11920 0.0 101114
15 may, sat
sat1500:00+15w119336 0.0 101211
03:00+15w01842 0.0 101211
06:00+16nw017383 0.0 101311
09:00+22nne115281 0.0 1014537
12:00+25sw0145100 0.0 10141061
15:00+25nnw124771 0.0 10131248
18:00+23nnw2466100 0.0 1013318
21:00+16n1190100 0.0 101325